Theta_e
317 322 325 319 320 320 322 354 361 360 353 355 354 352 354 353 352 353 346 343 346 346 345 346 346 347 348 348 348 347 347 347 348 348 347 346 346 346 345 346 345 346 346 345
319 323 322 321 319 321 333 355 359 357 355 350 352 355 355 353 353 353 353 339 344 344 345 345 347 348 348 348 347 349 348 347 347 348 346 346 346 344 343 345 345 345 346 344
324 324 319 320 320 320 320 348 356 356 356 352 353 357 357 354 352 352 352 339 343 346 346 345 347 348 348 348 347 348 346 346 347 349 347 347 346 344 343 345 347 347 346 345
322 322 321 321 322 320 321 322 353 356 350 356 350 358 358 356 355 353 352 341 344 345 346 345 347 348 348 348 348 348 346 346 349 349 348 347 347 347 346 345 347 348 348 347
323 321 322 323 322 319 321 321 350 350 351 351 358 350 346 356 358 355 353 345 344 344 345 346 347 348 347 348 348 348 348 347 346 349 348 347 348 347 347 347 348 348 348 348
320 319 319 320 320 320 329 342 341 340 344 351 351 351 353 359 356 354 350 349 344 344 345 345 346 347 347 346 347 347 348 347 345 345 348 348 347 348 347 347 347 348 349 349
320 321 320 318 319 318 323 336 346 349 350 349 341 352 344 348 352 352 350 348 342 344 344 345 347 347 346 346 346 346 345 346 346 345 347 347 348 348 347 348 347 347 349 350
320 322 320 318 319 319 322 329 340 348 349 347 345 352 343 347 345 348 347 348 341 344 343 344 346 346 344 347 347 347 347 346 346 346 346 348 348 348 346 345 349 348 348 349
319 321 321 318 317 318 320 327 324 330 324 344 345 346 344 349 351 350 352 350 347 344 345 345 345 345 345 348 349 347 347 347 346 347 350 351 350 349 347 347 349 349 350 350
318 320 321 323 321 323 320 318 325 321 330 339 348 351 350 354 353 354 354 354 351 346 345 345 344 345 346 346 345 349 348 347 347 347 347 348 349 348 349 347 347 348 347 347
317 319 322 321 320 324 326 326 320 321 326 344 349 348 352 353 349 354 353 353 351 348 347 344 344 344 345 345 347 348 349 349 348 347 348 348 348 348 348 349 348 347 347 348
318 315 321 323 320 318 322 325 322 326 337 336 340 348 352 353 354 349 349 349 347 346 348 347 345 345 346 346 346 345 343 345 347 347 350 349 349 349 349 349 349 347 347 349
317 317 321 322 317 317 317 317 319 320 329 339 341 347 351 350 350 349 348 347 345 343 344 344 346 346 346 344 343 341 341 343 344 345 348 349 349 349 348 347 347 344 345 346
319 315 319 321 320 318 321 321 317 317 322 331 338 351 355 351 351 349 348 346 345 345 342 342 342 343 342 342 341 341 340 342 341 340 340 341 343 344 345 346 346 347 348 348
317 320 319 319 318 318 318 322 327 320 322 331 337 350 350 349 347 346 344 343 342 340 338 339 340 340 341 341 341 340 340 340 339 340 341 338 340 344 341 341 344 345 345 348
316 322 322 324 321 318 319 328 322 341 338 343 345 350 346 343 338 341 340 338 336 334 332 332 332 334 334 333 333 336 339 344 344 342 340 341 342 340 341 340 337 340 342 344
318 319 321 325 321 321 324 327 321 338 340 344 347 345 342 339 338 335 331 331 330 329 328 328 328 328 326 325 326 327 329 334 336 335 337 340 342 344 344 343 341 339 340 344
314 318 318 322 320 325 321 328 336 339 339 339 343 345 339 333 328 326 324 324 323 323 324 324 325 324 323 324 323 324 325 324 325 327 329 331 332 330 332 335 335 340 342 342
310 313 317 321 324 323 324 321 324 335 340 338 343 339 330 327 325 322 321 321 319 317 317 320 321 320 320 321 321 322 320 320 322 321 323 325 325 325 325 324 323 326 328 333
310 310 315 316 323 327 323 320 319 322 336 334 333 330 329 329 332 325 318 319 317 317 320 319 317 316 317 317 317 317 315 317 317 318 319 322 323 323 325 324 323 324 331 337
314 313 314 318 318 319 317 319 318 324 321 329 328 328 328 330 326 319 317 317 316 316 316 316 315 314 314 314 314 313 312 312 314 316 318 319 320 320 321 323 323 322 323 321
318 314 316 313 319 323 316 317 323 317 317 327 326 326 326 320 319 319 318 315 313 312 313 313 312 312 312 312 313 310 310 311 312 314 315 316 316 316 317 318 319 319 319 319
317 316 318 317 316 313 314 315 313 311 316 324 323 320 319 318 318 318 316 314 313 312 311 311 311 310 310 310 310 309 307 308 309 309 310 311 313 313 314 315 316 316 316 315
314 313 317 318 318 317 314 313 312 313 315 318 317 318 318 318 316 316 315 313 310 310 310 310 309 308 308 308 307 306 306 306 306 306 306 306 306 306 307 309 310 310 309 310
311 312 313 314 315 315 315 313 311 313 316 317 316 317 317 316 316 315 311 309 309 309 309 309 308 307 307 306 305 305 304 304 304 304 303 302 302 302 302 303 304 304 304 307
312 312 313 315 313 312 313 312 312 312 315 316 316 316 316 315 313 311 310 309 309 308 307 307 307 307 307 306 305 303 303 303 303 301 300 300 300 300 300 300 300 300 300 302
Wind_Speed
3 4 6 5 5 5 3 4 8 5 2 5 2 5 4 8 7 5 6 12 13 14 17 21 24 25 25 23 24 23 21 20 18 16 14 12 12 12 11 10 10 11 8 9
5 6 7 6 4 5 5 5 5 5 2 4 4 5 7 12 11 4 6 8 14 8 10 16 21 23 26 27 27 23 22 24 21 16 16 10 13 11 12 12 12 11 10 10
6 3 10 5 5 5 2 6 4 6 5 6 8 4 4 7 8 6 5 7 10 15 13 12 19 22 25 29 31 27 26 24 22 17 15 10 11 7 10 11 13 12 12 11
3 3 8 6 4 5 4 7 10 14 5 4 2 3 4 10 13 10 7 7 10 13 15 15 20 21 28 33 31 29 27 25 22 20 15 12 12 10 9 13 11 11 11 11
5 6 5 4 6 6 6 7 15 11 5 4 6 2 3 10 12 13 8 8 14 15 17 16 23 29 31 32 33 32 28 24 24 23 16 14 13 10 8 12 12 11 10 9
5 1 5 8 5 10 5 9 9 5 3 2 8 5 4 11 21 21 19 16 14 16 18 22 28 23 22 23 30 32 30 26 24 23 19 15 12 14 11 13 13 13 11 10
4 4 4 4 4 2 4 5 2 3 1 5 4 4 6 9 10 25 29 21 15 16 15 14 16 20 21 24 29 32 29 30 24 22 20 16 11 10 13 14 15 15 14 13
5 5 7 4 8 7 8 8 5 5 5 3 3 5 4 6 6 11 11 17 10 13 13 13 16 17 14 14 18 27 31 33 26 22 20 17 14 11 12 13 14 15 16 14
5 5 3 5 5 9 5 4 5 7 3 3 2 3 4 7 5 11 12 14 11 13 13 16 18 15 12 16 13 20 25 30 26 22 19 16 14 12 11 11 12 13 13 12
3 2 2 2 4 3 5 6 3 3 5 3 2 2 3 3 3 7 13 11 9 9 12 12 16 20 11 17 19 16 16 25 25 21 18 17 15 12 10 8 9 10 9 8
4 3 5 1 1 7 2 1 6 5 3 5 4 4 2 4 5 8 8 9 9 10 11 13 20 23 20 13 18 13 14 16 17 17 16 14 14 13 9 7 6 4 7 7
1 4 3 2 2 2 1 4 5 5 3 1 3 2 2 5 7 10 9 8 7 6 8 8 11 18 22 21 19 15 8 3 5 15 13 12 12 13 10 10 9 6 6 7
4 2 2 5 6 5 6 3 4 5 4 4 5 3 5 7 7 9 10 9 8 7 5 6 11 15 19 21 19 16 11 8 6 8 9 8 7 7 10 8 9 9 9 11
5 3 4 6 4 3 3 5 3 5 4 5 3 10 10 10 9 11 10 10 9 9 7 7 7 7 11 16 14 14 14 13 14 9 4 5 6 9 7 4 4 4 5 7
4 3 3 4 3 5 5 7 6 1 5 6 8 12 15 13 13 11 11 12 12 11 11 8 7 9 10 13 10 9 8 10 13 10 3 2 1 7 3 2 3 2 1 3
6 4 4 5 6 7 5 11 9 5 3 5 11 5 7 10 10 10 9 10 11 11 12 12 11 14 13 14 15 11 7 6 10 12 6 3 4 3 4 2 1 2 2 1
4 6 2 3 7 3 4 7 4 3 1 6 7 8 15 14 13 11 8 9 10 11 13 13 14 16 16 17 19 20 19 17 17 16 10 3 1 6 2 2 3 1 2 1
3 3 3 1 6 3 2 4 8 6 6 5 4 17 14 14 7 8 7 11 9 9 11 12 18 19 21 25 25 26 25 24 26 23 20 16 15 15 14 12 7 9 2 1
5 4 3 4 1 4 2 3 2 1 4 3 9 14 14 14 13 7 7 10 10 9 13 13 18 24 24 25 23 22 24 23 24 21 18 16 13 12 13 13 14 15 8 4
5 7 4 2 5 7 1 2 4 3 2 3 7 14 17 13 6 4 5 9 13 17 22 25 19 23 22 20 20 22 20 19 18 16 16 14 13 14 14 13 13 11 12 13
4 4 3 1 1 5 2 7 7 5 5 7 12 14 12 4 2 6 6 10 17 19 21 20 21 20 17 14 15 20 17 18 14 11 11 12 12 14 13 11 11 11 11 13
1 3 1 2 3 2 6 5 1 4 4 9 7 9 9 11 14 13 7 10 14 17 19 20 21 18 15 13 13 17 18 12 10 10 10 9 10 11 11 10 12 12 11 12
1 4 3 4 4 5 5 3 4 3 2 2 8 4 10 14 12 12 10 11 15 17 18 16 18 17 12 11 10 15 12 10 11 12 13 11 10 9 10 10 11 12 12 14
2 2 2 3 2 3 5 5 3 3 1 4 9 11 10 12 11 11 9 10 13 18 18 17 17 15 13 12 12 13 10 9 11 13 14 13 13 12 11 9 10 11 13 14
4 1 3 2 5 2 2 3 5 5 6 12 10 13 11 11 10 8 6 10 15 18 16 14 13 12 13 12 12 12 11 10 14 15 13 13 14 14 13 13 12 12 13 12
3 5 4 5 4 3 4 4 3 0 5 8 13 10 16 17 11 13 7 11 17 19 17 13 11 11 12 10 10 10 10 11 13 14 12 13 13 13 14 13 11 11 10 8
Wind_Direction
185 107 204 187 196 142 126 78 102 81 10 87 357 359 169 178 230 190 156 181 179 184 185 177 178 190 195 199 196 194 190 190 192 177 172 168 171 187 193 191 180 186 189 194
75 217 198 198 151 123 105 97 78 72 31 67 123 323 160 180 207 203 162 181 183 152 163 160 168 184 195 197 193 195 189 183 188 186 189 187 190 198 206 204 198 198 200 201
153 213 151 158 151 134 141 141 168 139 125 45 115 6 127 184 216 235 211 188 185 160 170 168 169 180 191 198 195 196 185 187 187 190 190 193 184 185 193 195 194 200 204 205
185 242 135 139 157 134 183 189 153 142 114 150 164 204 233 191 216 229 230 181 181 176 175 175 173 183 192 204 201 199 194 192 191 191 197 193 192 192 197 197 193 195 198 195
234 159 154 143 181 173 223 167 159 161 101 106 190 146 231 166 207 227 241 193 187 182 176 181 185 190 196 200 203 200 199 199 197 198 199 204 214 213 192 190 191 195 199 204
211 185 144 198 180 176 122 88 50 61 74 309 192 187 226 189 202 199 202 225 190 187 188 186 193 186 187 195 203 205 205 205 201 200 198 204 223 211 197 198 199 202 206 206
331 254 212 155 137 89 79 77 71 49 85 219 239 130 240 225 206 195 198 205 194 190 187 176 179 182 185 190 199 203 204 207 205 202 204 203 204 219 215 208 208 203 203 206
157 293 170 185 170 177 183 162 151 156 189 218 102 214 260 301 217 205 200 207 180 183 176 172 171 178 180 184 201 201 205 207 204 204 209 209 208 217 225 232 229 213 213 213
153 268 265 196 151 142 189 169 184 104 26 99 231 298 298 17 66 156 150 161 164 172 168 161 133 120 155 167 211 213 204 207 206 207 206 213 214 217 233 240 239 236 217 221
217 294 258 269 119 46 161 163 99 16 138 182 296 281 251 3 56 126 145 139 128 135 146 144 148 137 156 187 236 231 212 213 211 213 216 221 228 232 242 244 246 229 210 221
139 109 290 117 150 169 117 105 51 108 101 150 156 252 217 231 161 140 131 133 139 137 141 159 174 175 168 189 216 212 206 208 219 221 222 229 233 239 249 250 267 288 249 251
130 143 222 161 305 266 73 144 134 123 221 40 130 244 343 95 118 137 142 136 108 96 125 136 146 152 155 168 170 151 113 87 218 229 215 217 231 240 241 252 270 278 285 287
168 18 45 3 355 8 49 22 101 101 93 202 138 216 138 117 117 145 147 134 122 125 123 102 128 155 151 150 159 159 183 180 114 116 169 176 207 222 227 230 243 263 273 273
108 81 145 174 192 188 13 2 95 104 117 168 205 148 157 144 133 134 134 129 119 118 125 104 94 107 137 150 166 166 165 175 182 179 119 83 113 112 107 137 201 236 274 266
81 80 45 38 238 100 73 23 343 300 167 149 185 172 173 154 150 142 139 133 128 123 111 106 102 91 108 123 122 139 161 195 204 197 203 25 111 238 272 225 190 147 288 304
352 29 333 3 358 112 75 19 11 55 86 50 114 109 139 139 127 136 133 127 121 116 105 100 85 88 89 90 96 108 115 166 199 187 177 332 324 257 256 257 21 243 219 296
103 130 249 290 337 321 16 351 338 320 253 163 155 178 146 146 148 142 141 135 129 122 114 98 95 82 79 82 92 85 92 107 108 93 101 137 61 118 117 347 302 245 14 289
78 76 3 72 8 74 286 181 94 78 17 339 82 138 145 134 106 105 120 118 105 102 98 100 101 102 101 101 94 96 89 82 85 81 81 82 79 75 83 89 88 88 54 10
24 127 73 108 81 294 282 14 50 58 6 8 132 127 130 120 104 76 105 114 115 100 79 87 112 115 113 105 103 95 86 79 76 68 67 67 66 64 71 72 65 67 57 37
36 62 107 148 151 196 162 309 298 137 29 102 140 137 143 155 138 153 150 125 115 117 124 122 117 108 105 107 107 97 85 79 67 61 60 65 60 54 50 36 46 54 59 75
7 6 108 86 142 294 273 295 299 97 237 161 161 159 167 179 211 135 131 111 119 125 124 125 117 103 101 100 100 90 85 79 85 84 77 71 69 67 67 74 70 70 75 78
112 107 163 84 88 255 354 333 101 234 284 172 158 180 146 131 129 135 145 119 114 114 123 124 113 99 95 92 95 89 81 78 81 90 91 82 75 73 72 75 78 77 78 72
345 172 183 159 217 255 276 253 285 239 268 198 125 110 135 140 143 146 136 132 136 130 128 124 116 106 91 83 85 92 88 93 91 90 89 89 88 80 70 67 70 69 64 56
329 119 98 58 303 324 331 334 17 3 211 112 110 127 142 139 140 137 145 141 130 139 138 137 129 120 116 111 104 99 96 95 98 89 83 79 77 75 76 72 62 51 44 48
207 36 142 283 274 288 350 11 2 65 89 104 113 128 130 140 144 142 147 141 142 148 150 154 145 138 134 126 112 106 103 108 100 94 85 78 70 64 65 65 65 63 56 48
187 181 154 215 227 150 255 315 349 196 146 139 131 139 150 149 141 131 136 157 159 162 163 156 153 147 141 141 126 112 109 105 106 94 79 72 74 68 62 62 75 66 70 75